Weather History for Mount Pleasant, IA

Change the Weather History Date:

Thursday, April 11, 2013

  Actual Average Record
Temperature  
Mean Temperature 46 °F -  
Max Temperature 53 °F 60 °F 81 °F (1968)
Min Temperature 41 °F 39 °F 24 °F (1959)
Degree Days  
Heating Degree Days 18    
Moisture  
Dew Point 37 °F    
Average Humidity 73    
Maximum Humidity 83    
Minimum Humidity 60    
Precipitation  
Precipitation 0.46 in - - ()
Sea Level Pressure  
Sea Level Pressure 29.64 in    
Wind  
Wind Speed 11 mph (SW)    
Max Wind Speed 22 mph    
Max Gust Speed 26 mph    
Visibility 8 miles    
Events Rain    
Averages and records for this station are not official NWS values.
T = Trace of Precipitation, MM = Missing Value Source: NWS Daily Summary

Daily Weather History Graph

Daily Weather History Graph

Search for Another Location

Airport:

Trip Planner

Search our weather history database for the weather conditions in past years. The results will help you decide how hot, cold, wet, or windy it might be!

Date:

Astronomy

Apr. 11, 2013 Rise Set
Actual Time 6:32 AM CDT 7:41 PM CDT
Civil Twilight 6:04 AM CDT 8:10 PM CDT
Nautical Twilight 5:30 AM CDT 8:43 PM CDT
Astronomical Twilight 4:55 AM CDT 9:19 PM CDT
Moon 7:03 AM CDT (4/11) 9:17 PM CDT (4/11)
Length of Visible Light 14h 05m
Length of Day
13h 09m
New Moon, 2% of the Moon is Illuminated
Apr 11
New Moon
Apr 18
First Quarter
Apr 25
Full
May 2
Last Quarter
May 9
New

Hourly Weather History & Observations

Time (CDT) Temp. Windchill Dew Point Humidity Pressure Visibility Wind Dir Wind Speed Gust Speed Precip Events Conditions
12:15 AM 46.4 °F 40.7 °F 40.1 °F 79% 29.69 in 10.0 mi ENE 12.7 mph 20.7 mph N/A   Overcast
12:35 AM 46.0 °F 39.9 °F 40.1 °F 80% 29.68 in 10.0 mi ENE 13.8 mph - N/A   Overcast
12:55 AM 46.0 °F 39.6 °F 40.3 °F 80% 29.67 in 4.0 mi ENE 15.0 mph - N/A   Light Drizzle
1:15 AM 46.0 °F 39.9 °F 40.5 °F 81% 29.67 in 5.0 mi NE 13.8 mph 18.4 mph N/A   Light Drizzle
1:35 AM 46.0 °F 40.6 °F 40.6 °F 81% 29.66 in 3.0 mi ENE 11.5 mph - N/A   Light Drizzle
1:55 AM 46.4 °F 41.9 °F 41.0 °F 81% 29.68 in 4.0 mi East 9.2 mph - N/A Rain Rain
2:15 AM 46.4 °F 44.3 °F 41.0 °F 81% 29.67 in 2.5 mi East 4.6 mph - N/A   Drizzle
2:35 AM 46.4 °F 42.9 °F 41.0 °F 81% 29.65 in 2.5 mi ENE 6.9 mph - N/A   Light Drizzle
2:55 AM 46.4 °F 42.9 °F 41.4 °F 83% 29.65 in 2.5 mi East 6.9 mph - N/A   Haze
3:15 AM 46.4 °F 43.5 °F 41.4 °F 83% 29.63 in 2.0 mi East 5.8 mph - N/A   Haze
3:35 AM 46.6 °F - 41.5 °F 83% 29.65 in 1.8 mi Calm Calm - N/A   Drizzle
3:55 AM 46.8 °F - 41.9 °F 83% 29.64 in 2.0 mi Calm Calm - N/A   Drizzle
4:15 AM 46.8 °F - 41.9 °F 83% 29.64 in 2.0 mi West 3.5 mph - N/A   Light Drizzle
4:35 AM 46.6 °F - 41.7 °F 83% 29.64 in 4.0 mi West 3.5 mph - N/A   Haze
4:55 AM 46.6 °F - 41.5 °F 83% 29.62 in 3.0 mi Calm Calm - N/A   Haze
5:15 AM 46.4 °F 45.2 °F 41.2 °F 82% 29.63 in 7.0 mi West 3.5 mph - N/A   Overcast
5:35 AM 46.4 °F - 41.4 °F 83% 29.62 in 7.0 mi Calm Calm - N/A   Overcast
5:55 AM 46.4 °F 45.2 °F 41.4 °F 83% 29.63 in 5.0 mi WSW 3.5 mph - N/A   Haze
6:15 AM 46.4 °F 45.2 °F 41.2 °F 82% 29.63 in 3.0 mi WSW 3.5 mph - N/A   Haze
6:35 AM 46.4 °F 42.4 °F 41.4 °F 83% 29.64 in 5.0 mi WSW 8.1 mph - N/A   Haze
6:55 AM 46.4 °F 42.9 °F 41.5 °F 83% 29.66 in 3.0 mi WSW 6.9 mph - N/A   Overcast
7:15 AM 46.4 °F 42.9 °F 41.4 °F 83% 29.64 in 3.0 mi WSW 6.9 mph - N/A   Haze
7:35 AM 46.6 °F - 41.7 °F 83% 29.66 in 10.0 mi SW 9.2 mph - N/A   Overcast
7:55 AM 47.3 °F - 41.9 °F 82% 29.65 in 10.0 mi SW 8.1 mph - N/A   Overcast
8:15 AM 47.5 °F - 41.5 °F 80% 29.63 in 10.0 mi WSW 6.9 mph - N/A   Overcast
8:35 AM 48.2 °F - 42.3 °F 80% 29.64 in 10.0 mi WSW 10.4 mph - N/A   Overcast
8:55 AM 48.4 °F - 41.7 °F 78% 29.63 in 10.0 mi WSW 15.0 mph 18.4 mph N/A   Overcast
9:15 AM 48.9 °F - 41.9 °F 77% 29.63 in 10.0 mi WSW 12.7 mph - N/A   Overcast
9:35 AM 50.0 °F - 42.6 °F 76% 29.63 in 10.0 mi SW 10.4 mph - N/A   Overcast
9:55 AM 50.0 °F - 41.2 °F 72% 29.62 in 10.0 mi SW 15.0 mph - N/A   Overcast
10:15 AM 50.4 °F - 41.4 °F 71% 29.63 in 10.0 mi WSW 10.4 mph - N/A   Overcast
10:35 AM 52.9 °F - 41.7 °F 66% 29.63 in 10.0 mi West 8.1 mph - N/A   Overcast
10:55 AM 51.1 °F - 41.0 °F 68% 29.64 in 10.0 mi WSW 10.4 mph - N/A   Overcast
11:15 AM 51.1 °F - 39.9 °F 66% 29.63 in 10.0 mi WSW 12.7 mph - N/A   Overcast
11:35 AM 52.2 °F - 39.7 °F 63% 29.62 in 10.0 mi SW 9.2 mph - N/A   Overcast
12:15 PM 50.5 °F - 41.0 °F 70% 29.63 in 7.0 mi SW 12.7 mph - N/A   Overcast
12:35 PM 50.4 °F - 42.1 °F 73% 29.62 in 7.0 mi SW 9.2 mph - N/A   Overcast
12:55 PM 49.8 °F - 41.5 °F 73% 29.62 in 7.0 mi SW 13.8 mph 18.4 mph N/A   Overcast
1:15 PM 48.7 °F - 41.9 °F 77% 29.62 in 2.0 mi SW 18.4 mph - N/A   Haze
1:35 PM 48.2 °F - 41.5 °F 78% 29.62 in 1.8 mi SW 17.3 mph - N/A   Haze
1:55 PM 47.5 °F - 39.6 °F 74% 29.63 in 3.0 mi WSW 17.3 mph 26.5 mph N/A   Haze
2:15 PM 48.0 °F - 38.7 °F 70% 29.62 in 10.0 mi SW 17.3 mph - N/A   Overcast
2:35 PM 47.3 °F - 37.4 °F 68% 29.63 in 10.0 mi SW 19.6 mph - N/A   Overcast
2:55 PM 46.9 °F - 36.1 °F 66% 29.63 in 10.0 mi WSW 15.0 mph - N/A   Overcast
3:15 PM 45.7 °F 38.3 °F 36.5 °F 70% 29.64 in 5.0 mi SW 18.4 mph 24.2 mph N/A   Haze
3:35 PM 45.5 °F 37.6 °F 35.8 °F 69% 29.64 in 10.0 mi WSW 20.7 mph - N/A   Overcast
3:55 PM 45.9 °F 38.8 °F 36.0 °F 68% 29.65 in 10.0 mi WSW 17.3 mph 25.3 mph N/A   Overcast
4:15 PM 45.9 °F 37.8 °F 35.4 °F 67% 29.65 in 10.0 mi SW 21.9 mph 25.3 mph N/A   Overcast
4:35 PM 44.2 °F 36.7 °F 35.1 °F 70% 29.65 in 7.0 mi SW 17.3 mph 26.5 mph N/A   Overcast
4:55 PM 44.1 °F 37.4 °F 34.7 °F 70% 29.63 in 10.0 mi WSW 13.8 mph - N/A   Overcast
5:15 PM 45.5 °F 38.1 °F 34.2 °F 65% 29.62 in 10.0 mi WSW 18.4 mph 21.9 mph N/A   Overcast
5:35 PM 44.8 °F 38.0 °F 32.0 °F 61% 29.64 in 10.0 mi SW 15.0 mph 20.7 mph N/A   Overcast
5:55 PM 44.6 °F 37.8 °F 32.2 °F 62% 29.65 in 10.0 mi SW 15.0 mph - N/A   Overcast
6:15 PM 44.1 °F 37.4 °F 32.7 °F 64% 29.65 in 10.0 mi WSW 13.8 mph - N/A   Overcast
6:35 PM 43.7 °F 35.7 °F 31.5 °F 62% 29.64 in 10.0 mi WSW 18.4 mph - N/A   Overcast
6:55 PM 43.7 °F 35.7 °F 31.5 °F 62% 29.65 in 10.0 mi WSW 18.4 mph 24.2 mph N/A   Overcast
7:15 PM 43.2 °F 35.0 °F 31.5 °F 63% 29.66 in 10.0 mi SW 18.4 mph 23.0 mph N/A   Overcast
7:35 PM 42.3 °F 34.1 °F 30.0 °F 62% 29.65 in 10.0 mi SW 17.3 mph 26.5 mph N/A   Overcast
7:55 PM 41.9 °F 34.6 °F 29.7 °F 62% 29.65 in 10.0 mi SW 13.8 mph 23.0 mph N/A   Overcast
8:15 PM 41.5 °F 32.6 °F 28.6 °F 60% 29.64 in 10.0 mi WSW 19.6 mph - N/A   Overcast
8:35 PM 41.0 °F 34.3 °F 28.9 °F 62% 29.64 in 10.0 mi WSW 11.5 mph - N/A   Mostly Cloudy
8:55 PM 41.2 °F 33.7 °F 29.3 °F 63% 29.65 in 10.0 mi SW 13.8 mph 20.7 mph N/A   Overcast
9:15 PM 41.4 °F 33.6 °F 29.1 °F 62% 29.66 in 10.0 mi SW 15.0 mph 20.7 mph N/A   Overcast
9:35 PM 41.2 °F 35.0 °F 29.7 °F 64% 29.65 in 10.0 mi SW 10.4 mph 17.3 mph N/A   Overcast
9:55 PM 41.0 °F 33.9 °F 29.7 °F 64% 29.65 in 10.0 mi SW 12.7 mph - N/A   Overcast
10:15 PM 41.0 °F 34.7 °F 30.0 °F 65% 29.66 in 10.0 mi SW 10.4 mph 17.3 mph N/A   Overcast
10:35 PM 41.0 °F 34.7 °F 30.2 °F 65% 29.66 in 10.0 mi SW 10.4 mph - N/A   Overcast
10:55 PM 41.0 °F 34.7 °F 30.2 °F 65% 29.66 in 10.0 mi SW 10.4 mph - N/A   Overcast
11:15 PM 41.0 °F 34.3 °F 30.6 °F 66% 29.66 in 10.0 mi SW 11.5 mph - N/A   Overcast
11:35 PM 41.0 °F 34.7 °F 30.7 °F 67% 29.65 in 10.0 mi SW 10.4 mph - N/A   Overcast
11:55 PM 41.0 °F 35.2 °F 30.7 °F 67% 29.65 in 10.0 mi SW 9.2 mph - N/A   Overcast